Location: Memphis International Airport Police
(35.0443°N, 89.9815°W)
Time: 18:01:02
(UTC+00:00)

NOSS 2-3 (E) - Pass Details

Date: 26 September 2023
Orbit: 505 x 1696 km, 63.3° (Epoch: 05 December)

Event Time Altitude Azimuth Distance (km) Brightness Sun altitude
Rises 00:43:53 0° 216° (SW) 2,651 7.2 -11.3°
Reaches altitude 10° 00:46:04 10° 219° (SW) 1,723 6.3 -11.8°
Maximum altitude 00:49:45 65° 302° (WNW) 559 3.6 -12.5°
Drops below altitude 10° 00:53:37 10° 26° (NNE) 1,799 5.8 -13.3°
Sets 00:55:56 0° 29° (NNE) 2,782 6.7 -13.8°
